Location: Cantaing
(50.1487°N, 3.1675°E)
Time: 22:42:02
(UTC+00:00)

Cosmos 2082 Rocket - Pass Details

Date: 16 April 2026
Orbit: 831 x 853 km, 71.0° (Epoch: 19 May)

Event Time Altitude Azimuth Distance (km) Brightness Sun altitude
Exits shadow 00:45:48 18° 108° (ESE) 1,962 4.0 -28.4°
Maximum altitude 00:46:28 19° 99° (E) 1,944 4.1 -28.4°
Drops below altitude 10° 00:50:17 10° 57° (ENE) 2,490 5.2 -28.2°
Sets 00:53:26 0° 40° (NE) 3,432 6.4 -28.1°
